リニア彗星

295P/LINEAR (2002)

English version
Home page
Updated on January 19, 2014

---------------------------------------------------------------------

・ プロフィール

符号 295P/2002 AR2
発見日 2002年1月6日
発見光度 18.9等
発見者 Lincoln Laboratory Near-Earth Asteroid Research project

・ 軌道要素

Epoch 2002 Jan. 6.0 TT = JDT 2452280.5
T 2002 Jan. 16.51746 TT                                 MPC
q   2.0644285            (2000.0)            P               Q
n   0.07918138     Peri.   73.66625     +0.15637128     -0.98647367
a   5.3709859      Node     7.84707     +0.71143251     +0.07796079
e   0.6156332      Incl.   21.10905     +0.68513634     +0.14419366
P  12.4
From 63 observations 2002 Jan. 6-2013 Dec. 26, mean residual 0".6.

・ 星図

・ 光度変化

        m1 = 14.0 + 5 logΔ + 10.0 log r

---------------------------------------------------------------------

軌道要素は Dr. Brian G. Marsden の計算によるもので、 M.P.E.C. 2014-A73 に掲載されたものです。
星図は StellaNavigator Ver.2.0 for Windows (アストロアーツ 編著 / アスキー出版局刊) で作成したものです。
光度グラフはComet for Windowsで作成したものです。

---------------------------------------------------------------------

Copyright(C) Seiichi Yoshida (comet@aerith.net). All rights reserved.